Погода в Заречье

Россия / Калининградская область     54°47′16″N   20°53′03″E
темп.,
°C
ветер,
м/с
пор.,
м/с
влажн.,
%
обл.,
%
осадки,
мм/ч
давл.,
гПа
погр.,
м
16 мая, вс
вс1623:00+8вюв2295100 0.0 100824
02:00+7вюв349798 0.0 100862
05:00+7юв349692 0.0 100782
08:00+13юв468371 0.0 1007277
11:00+15ююв5979100 0.3 1007640
14:00+15вюв4886100 1.0 1005580
17:00+16ююв51086100 2.8 1004800
20:00+14ююв4992100 5.1 1002227
17 мая, пн
пн1723:00+12ю3595100 0.7 1002131
02:00+11ю3797100 1.4 1003229
05:00+9ююз379657 0.0 1004150
08:00+13ююз35850 0.0 1005333
11:00+17ююз33624 0.0 10061213
14:00+19ююв335755 0.1 10051741
17:00+17св336739 0.0 1005489
20:00+13ссз228356 0.1 100424
18 мая, вт
вт1823:00+11св22884 0.0 100425
02:00+10ссв2387100 0.0 100343
05:00+9с3390100 0.0 100360
08:00+13с4681100 0.0 1002276
11:00+15сз5672100 0.0 1003661
14:00+15сз676518 0.0 1004777
17:00+13сз687362 0.0 1006695
20:00+10сз4985100 0.1 1008396
19 мая, ср
ср1923:00+9з2594100 0.2 1009183
02:00+9з3695100 0.3 1009190
05:00+8з3696100 0.0 1009175
08:00+11з3585100 0.0 1010406
11:00+14сз5679100 0.6 1010971
14:00+15сз566593 0.9 10101000
17:00+13сз5673100 0.0 1010605
20:00+9сз3789100 0.0 1010245
20 мая, чт
чт2023:00+6зсз3795100 0.0 1011149
02:00+6з379593 0.0 1010120
05:00+5з35952 0.0 101084
08:00+11з457842 0.0 1010392
11:00+15сз456258 0.0 10101138
14:00+15сз6661100 0.0 10111032
17:00+12сз6870100 0.0 1012677
20:00+9зсз3886100 0.0 1013331